User: anonymous   Login
Location: Unspecified
(0.0000°N, 0.0000°E)
Time: 19:29:29
(UTC+00:00)
Language:

STARLINK-30752 - Orbit

View from above orbital plane
View from above orbital plane
View from above satellite
View from above satellite

Ground track
Ground track

The orbit is defined by the following mean orbital elements,

1 58171U          26145.51293152 +.00000000 +00000-0 -87483-4 0 00006
2 58171  53.1600 222.6038 0001104  96.1184 263.9943 15.30200280    04
Epoch (UTC): 25 May 2026 12:18:37
Eccentricity: 0.0001104
inclination: 53.1600°
perigee height: 474 km
apogee height: 476 km
right ascension of ascending node: 222.6038°
argument of perigee: 96.1184°
revolutions per day: 15.30200280
mean anomaly at epoch: 263.9943°

The dashed part of the orbit path shows where the satellite is in the earth's shadow,  

DLR